"Pseudo-MPEC" for C14RJ55

Created 2025 Jul 7 21:35:02 UT using Find_Orb

Click here for an explanation of pseudo-MPECs

 
 Astrometry: 
     C14RJ55* C2025 06 19.28661016 20 29.015-07 30 42.77   ~6JC5 21.98GVNEOCPV00
     C14RJ55  C2025 06 19.29219616 20 29.368-07 30 54.43   ~6JC5 22.38GVNEOCPV00
     C14RJ55  C2025 06 19.29778816 20 29.720-07 31 06.13   ~6JC5 21.74GVNEOCPV00

Station data:
(V00) Kitt Peak-Bok  (N31.963125 W111.600190)  US/Arizona.  Observers T. A.
   Pruyne, B. M. Africano, E. J. Christensen, G. A. Farneth, D. C. Fuls, A.
   R. Gibbs, A. D. Grauer, H. Gröller, J. A. Johnson, R. A. Kowalski, S. M.
   Larson, G. J. Leonard, D. Rankin, R. L. Seaman, F. C. Shelly, K. W.
   Wierzchoś. 2.25-m reflector + 4x4K mosaic CCD.

Orbital elements:  C14RJ55
   Perihelion 2025 Apr 28.22204 +/- 39.2 TT =  5:19:43 (JD 2460793.72204)
Epoch 2025 Jun 19.0 TT = JDT 2460845.5   Earth MOID: 0.0198   Ju: 0.7388
M   5.11247134 +/- 25               Ve: 0.0263   Me: 0.0919      AutoNEOCP
n   0.09873836 +/- 0.211            Peri.  260.10089 +/- 90
a   4.63602148 +/- 6.62             Node   249.65119 +/- 60
e   0.9165204 +/- 0.252             Incl.    9.08571 +/- 5.5
P   9.98201                H 24.31  G  0.15   U 11.7  SR
q 0.38701286 +/- 0.367    Q 8.88503010 +/- 44.6           (J2000 ecliptic)
From 3 observations 2025 June 19 (16.1 min); mean residual 0".01
Residuals in arcseconds: 
250619 V00  .00   .01-    250619 V00  .01+  .01+    250619 V00  .00   .01-    

Ephemerides (geocentric):
Date (UTC) HH   RA             Dec           delta  r     elong  mag " sig PA
---- --------  ------------   ------------  ------ ------ -----  --- --------
2025 07 07 22  16 34 12.824   -12 09 52.64  .55851 1.4967 142.0 25.1  44d  90
2025 07 07 23  16 34 14.358   -12 10 11.72  .55935 1.4973 142.0 25.1  44d  90
2025 07 08 00  16 34 15.894   -12 10 30.77  .56019 1.4980 141.9 25.1  44d  90
2025 07 08 01  16 34 17.429   -12 10 49.80  .56103 1.4986 141.9 25.1  44d  90
2025 07 08 02  16 34 18.965   -12 11 08.79  .56187 1.4992 141.9 25.1  44d  90
2025 07 08 03  16 34 20.501   -12 11 27.75  .56271 1.4999 141.8 25.1  44d  90
2025 07 08 04  16 34 22.038   -12 11 46.68  .56355 1.5005 141.8 25.1  44d  90
2025 07 08 05  16 34 23.575   -12 12 05.59  .56439 1.5011 141.8 25.1  44d  90
2025 07 08 06  16 34 25.113   -12 12 24.46  .56523 1.5018 141.7 25.1  44d  90
2025 07 08 07  16 34 26.651   -12 12 43.30  .56607 1.5024 141.7 25.1  44d  90
2025 07 08 08  16 34 28.190   -12 13 02.12  .56691 1.5031 141.7 25.1  44d  90
2025 07 08 09  16 34 29.728   -12 13 20.91  .56775 1.5037 141.6 25.1  44d  90
2025 07 08 10  16 34 31.268   -12 13 39.66  .56859 1.5043 141.6 25.1  44d  90
2025 07 08 11  16 34 32.808   -12 13 58.39  .56943 1.5050 141.6 25.1  44d  90
2025 07 08 12  16 34 34.348   -12 14 17.09  .57027 1.5056 141.6 25.1  44d  90
2025 07 08 13  16 34 35.888   -12 14 35.77  .57111 1.5062 141.5 25.1  44d  90
2025 07 08 14  16 34 37.429   -12 14 54.41  .57195 1.5069 141.5 25.1  44d  90
2025 07 08 15  16 34 38.971   -12 15 13.03  .57280 1.5075 141.5 25.1  44d  90
2025 07 08 16  16 34 40.513   -12 15 31.61  .57364 1.5081 141.4 25.1  44d  90
2025 07 08 17  16 34 42.055   -12 15 50.17  .57448 1.5088 141.4 25.2  44d  90
2025 07 08 18  16 34 43.598   -12 16 08.71  .57532 1.5094 141.4 25.2  44d  90
2025 07 08 19  16 34 45.142   -12 16 27.21  .57616 1.5100 141.3 25.2  44d  90
2025 07 08 20  16 34 46.685   -12 16 45.69  .57701 1.5107 141.3 25.2  44d  90
2025 07 08 21  16 34 48.230   -12 17 04.14  .57785 1.5113 141.3 25.2  44d  90
2025 07 08 22  16 34 49.774   -12 17 22.56  .57869 1.5119 141.3 25.2  44d  90
2025 07 08 23  16 34 51.320   -12 17 40.95  .57954 1.5126 141.2 25.2  44d  90
2025 07 09 00  16 34 52.865   -12 17 59.32  .58038 1.5132 141.2 25.2  44d  90
2025 07 09 01  16 34 54.412   -12 18 17.66  .58122 1.5138 141.2 25.2  44d  90
2025 07 09 02  16 34 55.958   -12 18 35.97  .58207 1.5145 141.1 25.2  44d  90
2025 07 09 03  16 34 57.505   -12 18 54.26  .58291 1.5151 141.1 25.2  44d  90
2025 07 09 04  16 34 59.053   -12 19 12.52  .58376 1.5157 141.1 25.2  45d  90
2025 07 09 05  16 35 00.601   -12 19 30.75  .58460 1.5164 141.0 25.2  45d  90
2025 07 09 06  16 35 02.150   -12 19 48.96  .58544 1.5170 141.0 25.2  45d  90
2025 07 09 07  16 35 03.699   -12 20 07.14  .58629 1.5176 141.0 25.2  45d  90
2025 07 09 08  16 35 05.249   -12 20 25.29  .58713 1.5183 140.9 25.2  45d  90
2025 07 09 09  16 35 06.799   -12 20 43.42  .58798 1.5189 140.9 25.2  45d  90
2025 07 09 10  16 35 08.349   -12 21 01.52  .58882 1.5195 140.9 25.2  45d  90
2025 07 09 11  16 35 09.900   -12 21 19.59  .58967 1.5202 140.9 25.2  45d  90
2025 07 09 12  16 35 11.452   -12 21 37.64  .59052 1.5208 140.8 25.2  45d  90
2025 07 09 13  16 35 13.004   -12 21 55.66  .59136 1.5214 140.8 25.2  45d  90
2025 07 09 14  16 35 14.557   -12 22 13.66  .59221 1.5221 140.8 25.2  45d  90
2025 07 09 15  16 35 16.110   -12 22 31.63  .59305 1.5227 140.7 25.2  45d  90
2025 07 09 16  16 35 17.664   -12 22 49.58  .59390 1.5233 140.7 25.2  45d  90
2025 07 09 17  16 35 19.218   -12 23 07.50  .59475 1.5240 140.7 25.3  45d  90
2025 07 09 18  16 35 20.773   -12 23 25.40  .59559 1.5246 140.6 25.3  45d  90
2025 07 09 19  16 35 22.328   -12 23 43.27  .59644 1.5252 140.6 25.3  45d  90
2025 07 09 20  16 35 23.884   -12 24 01.11  .59729 1.5259 140.6 25.3  45d  90
2025 07 09 21  16 35 25.441   -12 24 18.93  .59814 1.5265 140.5 25.3  45d  90